Location: ?????????
(54.7630°N, 39.4991°E)
Time: 07:27:06
(UTC+00:00)

SeaSat 1 - Pass Details

Date: 14 April 2026
Orbit: 736 x 740 km, 108.0° (Epoch: 9 May)

Event Time Altitude Azimuth Distance (km) Brightness Sun altitude
Exits shadow 19:43:02 54° 180° (S) 899 2.5 -22.3°
Maximum altitude 19:44:01 70° 239° (WSW) 791 2.4 -22.4°
Drops below altitude 10° 19:48:56 10° 324° (NW) 2,261 6.0 -22.7°
Sets 19:51:13 0° 327° (NNW) 3,189 7.1 -22.8°
